Regional Weather Roundup
Issued by NWS

Home | Current Version | Previous Version | Text Only | Print | Product List | Glossary Off
Versions: 1 2 3 4 5 6 7 8 9 10 11 12 13 14 15 16 17 18 19 20 21 22 23 24 25 26 27 28 29 30 31 32 33 34 35 36 37 38 39 40 41 42 43 44 45 46 47 48 49 50

000
ASUS43 KBIS 291020
RWRND

NORTH DAKOTA REGIONAL WEATHER ROUNDUP
NATIONAL WEATHER SERVICE BISMARCK ND
500 AM CDT SUN MAR 29 2015

NOTE: "FAIR" INDICATES FEW OR NO CLOUDS BELOW 12,000 FEET WITH NO
SIGNIFICANT WEATHER AND/OR OBSTRUCTIONS TO VISIBILITY.


NDZ001>003-009>011-017-291100-
NORTHWEST NORTH DAKOTA

CITY           SKY/WX    TMP DP  RH WIND       PRES   REMARKS
WILLISTON      CLEAR     38  34  85 NW21G29   29.96R
MINOT          PTCLDY    38  32  79 NW25G33   29.78R
MINOT AFB      PTCLDY    38  37  98 NW25      29.77R
$$

NDZ018>021-031>035-040>046-291100-
SOUTHWEST NORTH DAKOTA

CITY           SKY/WX    TMP DP  RH WIND       PRES   REMARKS
BISMARCK       LGT RAIN  41  37  86 NW31G43   29.73R
DICKINSON      CLOUDY    38  33  82 NW28G39   29.90R
GARRISON         N/A     40  36  86 N30G43    29.76R
HETTINGER ARPT CLOUDY    39  37  92 NW29G41   29.91R
$$

NDZ004>008-012>016-024-026-027-054-291100-
NORTHEAST NORTH DAKOTA

CITY           SKY/WX    TMP DP  RH WIND       PRES   REMARKS
GRAND FORKS    CLOUDY    43  39  86 N29G44    29.46R
GRND FRKS AFB  CLOUDY    43  39  87 N25G33    29.48R
DEVILS LAKE    CLOUDY    39  36  87 N22G29    29.60R
$$

NDZ022-023-025-028>030-036>039-047>053-291100-
SOUTHEAST NORTH DAKOTA

CITY           SKY/WX    TMP DP  RH WIND       PRES   REMARKS
FARGO          CLOUDY    42  38  85 S18       29.46F
JAMESTOWN      RAIN      44  42  93 NW24G32   29.56R FOG
$$



USA.gov is the U.S. government's official web portal to all federal, state and local government web resources and services.